Location: Ferintosh
(52.7647°N, 112.9692°W)
Time: 15:38:08
(UTC+00:00)

Envisat - Pass Details

Date: 10 June 2023
Orbit: 763 x 764 km, 98.2° (Epoch: 20 September)

Event Time Altitude Azimuth Distance (km) Brightness Sun altitude
Rises 09:44:07 0° 30° (NNE) 3,242 8.8 -8.9°
Reaches altitude 10° 09:48:25 10° 66° (ENE) 2,309 6.4 -8.6°
Maximum altitude 09:49:52 11° 82° (E) 2,228 6.0 -8.5°
Drops below altitude 10° 09:51:20 10° 99° (E) 2,304 5.8 -8.3°
Sets 09:55:35 0° 134° (SE) 3,223 6.1 -8.0°
